Regional Weather Roundup
Issued by NWS

Home | Current Version | Previous Version | Graphics & Text | Print | Product List | Glossary On
Versions: 1 2 3 4 5 6 7 8 9 10 11 12 13 14 15 16 17 18 19 20 21 22 23 24 25 26 27 28 29 30 31 32 33 34 35 36 37 38 39 40 41 42 43 44 45 46 47 48 49 50
000
ASUS43 KLOT 271604
RWRIL

ILLINOIS REGIONAL WEATHER ROUNDUP
NATIONAL WEATHER SERVICE CHICAGO/ROMEOVILLE IL
1100 AM CDT FRI MAY 27 2016

NOTE: "FAIR" INDICATES FEW OR NO CLOUDS BELOW 12,000 FEET WITH NO
SIGNIFICANT WEATHER AND/OR OBSTRUCTIONS TO VISIBILITY.

* THESE STATIONS ARE NOT UNDER NWS QUALITY CONTROL. THEY ALSO MAY NOT
  REPORT WEATHER SUCH AS PRECIPITATION OR FOG.

ILZ001-002-007-009-015-016-024-271700-
NORTHWEST ILLINOIS

CITY           SKY/WX    TMP DP  RH WIND       PRES   REMARKS
MOLINE         PTSUNNY   74  66  76 SE15G23   29.80S
STERLING*      CLOUDY    78  65  63 S14G21    29.85F HX  80
$$

ILZ003-004-008-010-011-017-018-271700-
NORTH CENTRAL ILLINOIS

CITY           SKY/WX    TMP DP  RH WIND       PRES   REMARKS
ROCKFORD       CLOUDY    77  65  66 S12       29.89F
FREEPORT*      CLOUDY    75  64  68 SE16G24   29.87F
ROCHELLE*      CLOUDY    79  67  67 S18       29.88S HX  81
$$

ILZ005-006-012>014-019>023-271700-
NORTHEAST ILLINOIS

CITY           SKY/WX    TMP DP  RH WIND       PRES   REMARKS
CHICAGO-OHARE  PTSUNNY   74  66  76 S10       29.90R
CHICAGO-MIDWAY CLOUDY    77  64  64 S13       29.90S
AURORA         PTSUNNY   79  67  66 S14G20    29.90S HX  81
LANSING*       CLOUDY    75  65  70 S13       29.94R
WAUKEGAN       LGT RAIN  74  68  81 S14       29.89S
DUPAGE AIRPORT CLOUDY    77  66  68 S15       29.90S
WHEELING       CLOUDY    73  67  81 S9        29.91S
MORRIS*        CLOUDY    78  64  61 S13       29.89F HX  80
NORTHERLY ISL    N/A     73  63  70 S8          N/A
NORTHERLY ISL    N/A     73  63  70 S8          N/A
$$

LMZ740>746-271700-
SOUTHERN LAKE MICHIGAN

STATION/POSITION SKY/WX   TEMP    WIND        PRES    VSBY  WAVE
                          AIR SEA DIR/SP/G                  HT/PER
                          (F)     (DEG/KT/KT) (MB)    (MI)  (FT/S)
SOUTHERN BUOY              55 50  160/ 12/ 12 1012.4          1
WILMETTE HARBOR            65 58  220/  4/  6   N/A           1
HARRISON CRIB              70     190/ 12/ 12   N/A
BURNHAM HARBOR             74     180/  6/ 12   N/A
CALUMET HARBOR             72     200/ 10/ 14 1012.2F
BURNS HARBOR               74     190/ 12/ 17 1013.5F
MICHIGAN CITY              72     140/  9/ 11   N/A
MICHIGAN CITY 6N           65 59  170/  4/  6   N/A           1
ST. JOSEPH                 65 61  210/  4/  6   N/A           1/ 2
$$

ILZ025>027-034>036-040-047-049-050-058-095>099-271700-
WEST-CENTRAL ILLINOIS

CITY           SKY/WX    TMP DP  RH WIND       PRES   REMARKS
QUINCY         CLOUDY    72  67  84 S13G25    29.79F
MACOMB*        CLOUDY    68  67  94 S14G22    29.85S
PITTSFIELD*    CLOUDY    70  67  91 S14       29.84F
$$

ILZ028>032-037-038-041>044-048-051>054-059>061-271700-
CENTRAL ILLINOIS

CITY           SKY/WX    TMP DP  RH WIND       PRES   REMARKS
BLOOMINGTON    LGT RAIN  74  67  78 S22G31    29.91F
DECATUR        LGT RAIN  70  64  81 S14G23    29.92F
PEORIA         CLOUDY    73  65  75 S14       29.86F
LINCOLN*       LGT RAIN  73  67  83 S17G24    29.89F
SPRINGFIELD    LGT RAIN  72  67  84 S15G24    29.87F
TAYLORVILLE    NOT AVBL
$$

ILZ033-039-045-046-055>057-062-063-271700-
EAST-CENTRAL ILLINOIS

CITY           SKY/WX    TMP DP  RH WIND       PRES   REMARKS
CHAMPAIGN      LGT RAIN  75  63  66 S21       29.94R
MATTOON        CLOUDY    72  63  73 S10       29.94S
$$

ILZ079-100>102-271700-
SOUTHWEST ILLINOIS

CITY           SKY/WX    TMP DP  RH WIND       PRES   REMARKS
ALTON          DRIZZLE   68  68 100 SE15      29.88F
BELLEVILLE     LGT RAIN  68  68 100 E12       29.89F
CAHOKIA*       CLOUDY    72  68  87 SE14G25   29.87F
SPARTA*        LGT RAIN  68  67  97 SE9       29.93F
$$

ILZ064>066-069>071-074>076-080>082-084>086-088>090-092>094-271700-
SOUTH-CENTRAL ILLINOIS

CITY           SKY/WX    TMP DP  RH WIND       PRES   REMARKS
CARBONDALE     CLOUDY    69  66  90 SE6       29.93F
EFFINGHAM*     CLOUDY    72  69  92 SE7       29.97R
MT. VERNON     CLOUDY    68  63  83 CALM      29.96F
SALEM*         HVY RAIN  68  66  93 SE5       29.96S
$$

ILZ067-068-072-073-078-083-087-091-271700-
SOUTHEAST ILLINOIS

CITY           SKY/WX    TMP DP  RH WIND       PRES   REMARKS
LAWRENCEVILLE  CLOUDY    78  69  73 S14       29.98S HX  80
FLORA*         DRIZZLE   74  68  82 S12       29.97R
HARRISBURG*    PTSUNNY   73  69  86 S8        29.96F
ROBINSON*      PTSUNNY   76  68  75 S10       29.97F
$$

ABBREVIATIONS USED IN REMARKS
   TC - TEMPERATURE IN CELSIUS
  WCI - WIND CHILL INDEX
   HX - HEAT INDEX
  VSB - VISIBILITY
$$





USA.gov is the U.S. government's official web portal to all federal, state and local government web resources and services.